Precipitable_Water
1.02 1.11 1.18 1.23 1.32 1.39 1.45 1.51 1.55 1.53 1.57 1.70 1.80 1.78 1.82 1.93 1.90 1.73 1.51 1.38 1.31 1.34 1.44 1.57 1.80 1.89 1.96 1.94 1.97 2.00 1.93 1.78 1.74
0.98 1.07 1.13 1.19 1.27 1.40 1.49 1.51 1.52 1.53 1.59 1.72 1.76 1.77 1.86 1.84 1.79 1.56 1.35 1.41 1.37 1.41 1.49 1.57 1.72 1.60 1.57 1.61 1.59 1.57 1.51 1.46 1.49
1.01 1.09 1.14 1.21 1.29 1.39 1.51 1.54 1.57 1.60 1.64 1.66 1.71 1.74 1.76 1.70 1.46 1.31 1.39 1.38 1.40 1.46 1.56 1.55 1.40 1.32 1.27 1.22 1.21 1.20 1.20 1.16 1.20
1.00 1.00 1.13 1.23 1.36 1.46 1.55 1.55 1.58 1.60 1.61 1.59 1.58 1.70 1.59 1.39 1.26 1.32 1.40 1.37 1.43 1.42 1.31 1.22 1.18 1.19 1.17 1.17 1.18 1.21 1.20 1.22 1.21
1.00 1.04 1.13 1.21 1.27 1.33 1.41 1.47 1.50 1.57 1.61 1.56 1.60 1.53 1.39 1.21 1.24 1.32 1.29 1.31 1.30 1.27 1.25 1.22 1.19 1.23 1.26 1.25 1.25 1.28 1.28 1.24 1.25
1.00 1.08 1.13 1.16 1.27 1.36 1.45 1.49 1.54 1.62 1.61 1.59 1.37 1.27 1.13 1.13 1.22 1.26 1.24 1.26 1.28 1.29 1.28 1.28 1.28 1.26 1.23 1.23 1.24 1.25 1.25 1.25 1.20
1.05 1.06 1.09 1.21 1.28 1.34 1.41 1.49 1.54 1.55 1.57 1.36 1.17 1.13 1.11 1.14 1.25 1.30 1.33 1.37 1.38 1.36 1.33 1.30 1.27 1.26 1.23 1.20 1.19 1.18 1.18 1.17 1.13
1.02 1.05 1.06 1.18 1.25 1.28 1.41 1.48 1.55 1.59 1.34 1.15 1.15 1.15 1.16 1.22 1.30 1.37 1.40 1.39 1.36 1.35 1.33 1.28 1.25 1.22 1.21 1.19 1.09 0.96 1.07 1.01 0.87
1.00 1.06 1.11 1.16 1.29 1.31 1.38 1.43 1.53 1.44 1.18 1.13 1.23 1.25 1.24 1.33 1.36 1.37 1.37 1.34 1.33 1.35 1.30 1.25 1.23 1.16 1.10 1.00 0.82 0.68 0.60 0.66 0.67
0.98 1.10 1.17 1.22 1.26 1.28 1.36 1.48 1.51 1.22 1.17 1.26 1.32 1.32 1.27 1.31 1.34 1.35 1.35 1.35 1.33 1.28 1.21 1.20 1.11 1.03 0.94 0.88 0.71 0.54 0.55 0.62 0.71
0.92 1.09 1.23 1.32 1.35 1.36 1.47 1.56 1.37 1.22 1.27 1.31 1.33 1.33 1.29 1.35 1.36 1.37 1.40 1.33 1.26 1.22 1.19 1.08 0.92 0.80 0.75 0.80 0.71 0.60 0.59 0.56 0.74
0.95 1.10 1.33 1.40 1.45 1.50 1.56 1.53 1.35 1.25 1.28 1.31 1.31 1.30 1.32 1.42 1.43 1.39 1.34 1.27 1.24 1.19 1.01 0.81 0.72 0.74 0.73 0.76 0.82 0.62 0.59 0.56 0.71
1.00 1.16 1.40 1.51 1.56 1.61 1.59 1.50 1.40 1.29 1.26 1.28 1.27 1.34 1.41 1.47 1.47 1.41 1.33 1.30 1.19 0.97 0.82 0.72 0.74 0.75 0.79 0.70 0.79 0.62 0.58 0.61 0.68
1.01 1.24 1.42 1.60 1.67 1.61 1.59 1.58 1.49 1.35 1.32 1.26 1.42 1.45 1.49 1.49 1.48 1.41 1.35 1.23 1.00 0.85 0.76 0.78 0.72 0.74 0.79 0.77 0.76 0.79 0.70 0.60 0.53
1.05 1.25 1.46 1.60 1.61 1.62 1.64 1.64 1.53 1.40 1.33 1.45 1.48 1.52 1.57 1.51 1.49 1.35 1.26 1.07 0.93 0.86 0.76 0.73 0.78 0.78 0.81 0.88 0.91 0.81 0.61 0.51 0.46
1.21 1.39 1.58 1.67 1.65 1.63 1.60 1.60 1.57 1.51 1.52 1.57 1.55 1.61 1.56 1.52 1.40 1.28 1.20 1.03 0.88 0.79 0.77 0.77 0.80 0.80 0.75 0.71 0.77 0.75 0.64 0.57 0.52
1.28 1.44 1.62 1.65 1.61 1.57 1.56 1.67 1.75 1.72 1.63 1.64 1.67 1.56 1.54 1.53 1.37 1.28 1.14 1.06 0.93 0.83 0.76 0.71 0.70 0.70 0.62 0.57 0.56 0.58 0.61 0.51 0.55
1.38 1.52 1.61 1.68 1.66 1.62 1.70 1.83 1.85 1.75 1.79 1.83 1.71 1.63 1.58 1.52 1.35 1.17 1.11 0.94 0.81 0.73 0.73 0.66 0.61 0.58 0.50 0.47 0.46 0.50 0.47 0.47 0.52
1.31 1.57 1.64 1.70 1.78 1.85 1.90 2.00 1.86 1.88 1.90 1.68 1.60 1.55 1.49 1.36 1.20 1.15 0.96 0.78 0.63 0.66 0.68 0.51 0.47 0.40 0.36 0.43 0.45 0.51 0.54 0.55 0.56
1.43 1.57 1.63 1.68 1.72 1.77 1.74 1.80 1.83 1.79 1.70 1.69 1.60 1.50 1.39 1.19 1.11 1.04 0.86 0.74 0.71 0.72 0.68 0.64 0.59 0.53 0.48 0.52 0.57 0.55 0.53 0.54 0.58
Wind_Speed
4 8 11 12 13 13 12 11 11 11 10 11 11 10 10 9 10 10 10 11 11 8 7 7 8 9 9 9 10 11 13 13 13
3 5 7 10 11 12 12 12 11 10 10 9 10 9 9 9 9 9 9 9 8 7 7 8 10 10 10 10 10 10 11 11 12
1 4 5 6 8 9 10 11 11 10 9 9 9 8 7 7 7 8 7 7 7 7 8 8 9 9 9 10 10 11 11 12 13
3 4 5 6 6 7 8 9 9 9 7 6 6 6 5 6 6 6 6 6 6 6 7 8 9 10 10 11 12 12 13 14 15
5 5 5 5 6 6 6 7 8 8 7 6 5 5 6 6 5 4 4 4 5 6 8 9 10 11 12 13 14 14 15 16 17
7 7 7 6 6 6 6 8 8 8 8 6 6 6 5 4 3 3 3 5 6 8 9 11 12 13 14 14 15 15 16 17 18
9 10 10 8 8 7 7 7 8 8 8 7 6 5 4 3 3 4 5 6 7 9 11 13 14 15 15 16 17 17 18 19 19
11 13 13 11 10 9 8 8 8 9 8 7 6 5 5 5 5 5 7 8 10 11 13 14 15 17 17 18 18 19 20 19 19
12 13 14 14 12 11 11 10 10 9 10 9 8 7 6 6 7 7 8 9 11 12 14 16 17 18 18 18 19 20 20 19 18
14 14 14 15 13 13 11 11 10 10 11 11 9 9 8 8 9 10 10 11 12 15 17 18 19 19 18 19 20 19 19 18 18
17 17 18 17 15 15 13 12 11 11 11 11 10 10 10 11 11 11 12 12 14 16 18 19 19 19 19 19 19 19 19 20 20
18 19 19 19 18 17 15 14 13 13 12 12 12 11 11 12 12 12 13 14 16 18 19 20 19 19 19 20 19 19 20 21 22
17 19 20 19 19 18 17 16 15 15 14 13 13 13 13 13 13 13 14 15 17 19 20 19 19 19 20 20 20 20 21 22 24
16 17 19 20 19 18 18 18 17 16 15 16 15 14 13 14 14 14 15 16 18 19 19 19 20 20 20 21 21 21 23 24 25
17 18 20 21 20 19 19 18 18 18 18 16 15 14 14 15 14 14 15 17 18 19 19 19 20 20 22 22 22 23 23 24 26
16 18 20 21 20 21 20 20 20 18 18 16 15 14 13 13 15 15 16 18 19 19 19 20 20 21 23 23 22 24 24 26 28
16 18 20 22 22 22 22 22 20 19 18 17 15 14 14 15 16 16 17 19 19 19 19 19 20 22 23 23 24 24 25 28 31
18 20 21 22 23 23 24 23 20 19 17 14 15 13 14 15 13 16 18 19 18 18 18 19 21 22 23 24 24 25 29 32 32
19 20 20 23 24 24 23 26 19 16 15 12 15 17 16 16 16 17 17 17 17 17 17 19 21 22 22 24 25 29 30 32 32
18 19 21 23 22 23 22 21 16 17 17 18 17 17 18 16 18 18 17 17 17 17 18 20 21 21 22 25 27 29 31 32 31
Wind_Direction
235 224 224 228 223 223 226 232 233 232 234 242 253 258 269 280 287 299 308 316 323 322 334 337 334 327 319 312 304 300 301 302 303
244 220 221 221 218 221 225 230 228 232 236 246 254 256 264 277 286 297 305 314 322 317 313 323 324 323 321 318 312 308 305 305 305
212 194 205 209 216 217 225 229 227 230 236 252 252 248 259 274 287 294 305 310 317 316 316 320 324 326 324 322 318 314 309 308 309
205 197 202 202 211 220 225 223 220 221 231 236 228 237 255 284 291 294 297 308 317 322 323 325 326 324 322 321 318 314 311 310 311
212 210 209 213 218 221 219 209 208 212 219 223 235 248 269 283 281 283 295 307 322 325 324 322 320 318 316 315 313 312 311 310 309
221 218 218 215 213 215 216 215 219 220 222 228 241 250 264 264 262 274 294 307 316 318 319 319 318 316 314 313 314 312 312 310 308
228 227 226 221 220 222 220 217 216 215 215 225 229 241 242 235 258 280 293 306 314 318 319 318 318 317 313 311 311 311 311 310 307
237 233 226 223 224 222 222 219 217 217 220 221 226 234 236 245 260 282 296 307 313 314 317 317 317 315 311 308 308 311 311 310 309
240 229 225 222 222 224 222 221 222 225 222 224 229 237 243 257 272 283 294 300 307 310 315 315 316 314 311 311 310 311 309 310 308
236 233 226 222 221 221 220 220 224 226 222 226 234 245 251 262 276 283 293 298 304 309 313 315 315 314 313 312 311 310 309 307 305
238 237 229 226 226 224 222 221 224 221 222 227 237 249 257 267 275 285 291 296 304 309 312 314 314 314 314 312 312 308 307 306 303
244 236 230 227 224 224 223 226 226 226 229 236 243 253 263 270 277 283 288 295 303 308 312 313 313 312 313 312 310 307 306 306 304
249 233 227 223 220 222 225 228 228 231 235 241 249 257 265 271 278 281 289 296 303 307 311 311 310 311 312 311 310 308 307 306 306
247 228 220 221 221 224 227 230 231 235 239 244 252 258 265 271 276 283 290 297 303 306 308 309 310 311 310 309 309 309 308 307 306
239 224 222 224 225 227 230 231 234 239 243 248 252 255 266 270 273 284 292 299 303 305 306 307 309 310 311 307 306 309 308 308 307
236 228 226 228 229 230 233 234 237 240 242 242 246 254 268 271 272 282 292 299 303 303 305 307 307 308 311 311 308 309 308 310 309
239 234 232 234 234 233 236 236 238 237 234 236 244 252 265 280 276 279 290 298 302 302 303 306 309 311 312 312 311 312 312 314 312
248 241 239 239 236 238 237 234 233 229 225 243 240 262 279 287 282 282 294 298 300 303 306 310 314 315 315 314 314 315 314 315 314
254 247 245 239 239 238 238 229 222 227 224 243 255 266 281 283 285 287 293 298 297 302 307 312 314 314 315 315 316 316 316 316 315
257 251 249 244 243 238 241 238 237 244 243 273 277 268 279 280 286 286 291 293 295 299 304 310 313 316 318 318 319 320 319 318 317